Skip Page Navigation
NASA JPL Caltech
NASA Logo - Jet Propulsion Laboratory + View the NASA Portal
+ Center for Near-Earth Object Studies
JPL Home Earth Solar System Stars & Galaxies Technology
JPL Solar System Dynamics
BODIES ORBITS EPHEMERIDES TOOLS PHYSICAL DATA DISCOVERY FAQ SITE MAP
IMPORTANT: The SSD Announcement email list is now available. Major changes are coming in the near future, including possible hostname and/or URL changes. To be notified of such changes, subscribe to this email list.

Please visit this page for more details.


JPL Small-Body Database Browser
Search: [ help ]  
410548 (2008 FO111)
Classification: Main-belt Asteroid          SPK-ID: 2410548
Ephemeris | Orbit Diagram | Orbital Elements | Mission Design | Physical Parameters | Discovery Circumstances ]

[ show orbit diagram ]
Orbital Elements at Epoch 2458600.5 (2019-Apr-27.0) TDB
Reference: JPL 15 (heliocentric ecliptic J2000)
 Element Value Uncertainty (1-sigma)   Units 
e .1314680339042049 1.6092e-07  
a 2.578200410273332 3.8204e-08 au
q 2.239249471323682 4.0339e-07 au
i 26.23729032836201 1.3796e-05 deg
node 193.912933345399 1.641e-05 deg
peri 243.8845576044364 7.4009e-05 deg
M 9.345052953659952 6.1729e-05 deg
tp 2458561.248821343479
(2019-Mar-18.74882134)
0.00025958 TDB
period 1512.075360772918
4.14
3.3609e-05
9.202e-08
d
yr
n .238083371595964 5.2919e-09 deg/d
Q 2.917151349222981 4.3226e-08 au
  Orbit Determination Parameters
   # obs. used (total)      182  
   data-arc span      6336 days (17.35 yr)  
   first obs. used      2001-09-18  
   last obs. used      2019-01-23  
   planetary ephem.      DE431  
   SB-pert. ephem.      SB431-N16  
   condition code      0  
   norm. resid. RMS      .54733  
   source      ORB  
   producer      Otto Matic  
   solution date      2019-Jul-14 12:33:12  

Additional Information
 Earth MOID = 1.33494 au 
 Jupiter MOID = 2.53569 au 
 T_jup = 3.270 
[ show covariance matrix ]

Ephemeris | Orbit Diagram | Orbital Elements | Mission Design | Physical Parameters | Discovery Circumstances ]

Physical Parameter Table
Parameter Symbol Value Units Sigma Reference Notes
absolute magnitude H 16.7   n/a MPO472145  

410548 (2008 FO111)          Discovered 2008-Mar-31 by Mt. Lemmon Survey at Mount Lemmon
Reference: Last Updated: 2014-10-09
Ephemeris | Orbit Diagram | Orbital Elements | Mission Design | Physical Parameters | Discovery Circumstances ]
ABOUT SSD CREDITS/AWARDS PRIVACY/COPYRIGHT GLOSSARY LINKS
FirstGov 2020-Jan-28 23:14 UT
(server date/time)  
NASA Home Page
Site Manager:   Ryan S. Park
Webmaster  Alan B. Chamberlin